SCP
1 -0 -0 -0 -0 -0 -0 -0 -0 -0 -0 -0 -0 -0 -0 -0 -0 -0 0 0 0 0 0 0 0 0 0 0 0 0 0 0
-1 0 0 -0 -0 -0 -0 -0 -0 -0 -0 -0 -0 -0 -0 -0 -0 -0 0 0 0 0 0 0 0 0 0 0 0 0 0 0
-1 -0 1 0 -0 -0 -0 -0 -0 -0 -0 0 -0 -0 -0 -0 0 -0 0 0 0 0 0 0 0 0 0 0 0 0 0 0
0 -0 1 0 0 -0 -0 -0 -0 -0 -0 0 -0 -0 -0 -0 0 0 0 0 0 0 0 0 0 0 0 0 0 0 0 0
1 0 0 0 0 0 0 -0 -0 -0 -0 -0 -0 -0 -0 -0 -0 0 -0 0 0 0 0 0 0 0 0 0 0 0 0 0
0 -0 -0 0 0 0 0 0 0 -0 -0 -0 0 0 0 0 -0 -0 -0 0 0 0 0 0 0 0 0 0 0 0 0 0
0 -0 0 -0 0 0 0 0 0 0 0 0 0 0 0 -0 -0 -0 -0 0 0 0 0 0 0 0 0 0 0 0 0 0
0 0 0 0 0 0 0 0 0 0 0 0 0 0 0 -0 -0 -0 -0 0 0 0 0 0 0 0 0 0 0 -0 0 0
0 0 0 0 -0 0 0 0 0 0 0 0 0 0 0 -0 -0 0 0 0 0 0 0 0 0 0 0 0 0 0 0 0
0 0 0 0 0 0 0 0 0 0 0 -0 0 0 0 0 -0 0 -0 0 0 0 0 0 0 0 0 0 0 0 0 0
0 0 0 0 0 0 0 0 0 0 -0 -0 -0 0 0 0 0 0 0 0 0 0 0 0 0 0 0 0 0 0 0 0
0 0 0 0 0 0 0 0 0 -0 -0 -0 -0 -0 0 0 0 0 0 0 0 0 0 0 0 0 0 0 0 0 0 0
0 0 0 0 0 0 0 0 0 0 0 -0 -0 0 0 0 0 0 0 0 0 0 0 0 0 0 0 0 0 0 0 0
0 0 0 0 0 0 0 0 0 0 0 0 0 0 0 0 0 0 0 0 0 0 0 0 0 0 0 0 0 0 0 0
0 0 0 0 0 0 0 0 0 0 0 0 0 0 0 0 0 0 0 0 0 0 0 0 0 0 0 0 0 0 0 0
0 0 1 0 0 0 0 1 0 0 0 0 0 0 0 0 0 0 0 0 0 0 0 0 0 0 0 0 0 0 0 0
0 1 2 1 1 1 1 1 0 1 0 0 0 0 0 0 0 0 0 0 0 0 0 0 0 0 0 0 0 0 0 0
0 0 1 2 1 1 1 0 1 1 0 0 0 0 0 0 0 0 0 0 0 0 0 0 0 0 0 0 0 0 0 0
0 0 0 0 2 2 1 1 1 1 0 0 0 0 0 0 0 0 0 0 0 0 0 0 0 0 0 0 0 0 0 0
Wind_Speed_500mb
88 85 78 69 64 59 52 46 43 42 39 36 35 34 31 29 27 23 19 19 17 16 12 12 11 12 13 16 19 21 20 19
86 83 79 71 66 62 55 49 44 41 39 35 33 32 29 28 26 23 20 18 16 12 9 11 11 14 16 15 19 23 23 25
86 83 76 69 67 65 58 51 46 41 38 36 34 32 29 27 25 23 21 17 12 8 9 10 13 14 14 13 18 20 22 25
85 79 73 69 66 66 60 53 47 42 38 38 37 32 30 27 24 21 18 13 9 8 9 12 13 13 15 17 23 24 22 25
81 77 73 70 70 68 65 57 49 43 39 39 37 34 30 27 24 18 14 10 8 9 12 16 17 17 19 20 18 22 19 27
79 77 74 72 71 70 66 60 52 45 41 41 38 35 31 26 23 19 15 13 11 9 14 17 16 16 21 18 20 23 24 18
86 81 77 73 73 71 69 65 58 51 48 45 40 35 33 28 25 25 19 18 12 12 15 18 15 10 9 15 20 19 18 18
87 81 75 71 73 73 72 66 60 52 49 45 40 37 34 29 30 23 19 15 14 11 12 8 6 12 14 9 15 19 22 26
85 79 76 73 74 73 67 65 59 55 52 48 43 40 36 31 29 25 13 10 5 6 6 1 6 7 11 16 20 27 19 17
83 86 79 75 73 69 67 62 59 55 51 46 45 39 35 29 22 15 8 8 7 7 6 5 11 15 20 18 19 14 10 11
78 88 82 76 69 66 64 61 58 55 49 48 46 38 31 25 17 14 15 11 11 10 9 20 21 13 12 15 16 13 14 12
74 86 84 76 67 63 61 59 55 50 49 46 43 33 25 28 24 22 19 17 14 12 18 14 9 9 17 17 10 13 14 10
75 82 80 73 65 56 61 57 53 50 47 41 28 25 31 27 24 24 21 17 14 18 15 11 7 9 17 17 13 5 8 9
76 82 77 70 65 54 57 56 54 43 36 31 24 26 27 20 27 26 24 15 15 19 18 10 10 15 11 13 7 4 11 19
82 79 75 69 64 55 61 52 45 38 34 35 31 31 25 26 25 31 23 20 21 20 16 15 17 14 6 12 15 25 33 27
81 82 81 77 72 65 61 57 58 55 44 43 39 39 30 22 23 33 27 23 19 18 16 17 18 10 2 16 32 37 42 29
85 82 83 81 80 75 65 65 67 55 44 47 44 39 30 19 24 21 23 19 14 16 15 6 6 6 4 10 34 29 19 22
84 62 68 90 89 81 74 73 62 54 52 52 51 42 32 26 23 22 17 15 14 7 1 6 6 3 2 3 6 18 13 11
69 35 67 90 97 90 83 77 70 61 60 54 48 37 30 24 23 21 17 12 8 3 2 6 8 7 4 6 13 19 18 16
Wind_Direction_500mb
175 175 176 175 172 169 167 163 157 152 148 149 155 158 157 157 153 148 145 133 127 114 103 80 58 41 28 26 34 36 22 7
174 174 174 174 174 171 169 167 162 157 152 153 156 158 158 156 151 151 144 135 126 112 83 56 37 31 34 40 53 38 34 34
173 173 172 173 174 172 170 169 167 163 158 157 156 157 158 155 153 152 140 136 124 102 65 44 43 42 40 45 43 34 22 19
174 173 170 171 174 172 171 172 172 168 164 162 160 158 156 154 152 149 140 134 118 85 67 59 55 47 46 51 34 29 19 17
173 175 173 172 174 173 172 174 175 173 171 168 163 159 157 157 151 148 137 120 105 96 79 66 65 54 43 26 27 14 8 356
176 178 176 176 175 175 174 175 178 178 175 171 168 162 160 157 149 140 133 119 111 98 86 77 56 40 32 40 10 4 5 22
178 179 180 178 178 178 177 179 180 181 179 175 170 164 162 159 143 132 127 107 109 90 84 73 26 43 33 10 13 4 3 336
180 181 182 182 182 183 183 182 182 184 179 174 170 165 165 156 151 148 131 121 99 95 72 65 30 19 29 11 6 346 334 329
182 184 183 185 185 188 188 186 184 183 179 176 169 171 172 163 154 156 147 169 100 179 143 175 340 327 327 312 323 321 336 322
181 187 186 186 188 188 192 189 186 182 181 176 175 174 174 171 161 166 170 173 151 157 166 238 276 280 302 307 325 350 343 336
186 188 188 189 189 191 192 191 187 182 179 180 179 177 176 170 178 188 189 206 213 193 255 269 284 289 332 340 354 15 0 350
190 187 188 186 187 191 191 190 185 179 179 180 184 181 182 186 199 199 211 216 216 232 262 278 267 312 341 11 36 42 31 12
186 186 186 183 182 182 185 186 181 180 176 167 168 178 183 193 206 207 211 198 225 251 266 260 261 313 344 14 29 49 18 45
188 183 184 180 178 175 178 177 175 174 175 173 170 181 189 204 218 225 200 211 231 251 273 269 301 301 343 16 355 5 108 105
185 183 184 179 180 180 179 175 177 182 181 183 191 203 200 210 215 192 183 206 233 261 266 291 290 284 313 43 91 111 114 116
181 185 190 182 182 181 181 185 178 183 185 195 192 187 188 191 196 199 211 224 244 263 283 284 280 243 235 112 133 122 110 111
178 184 194 188 185 185 184 182 182 185 188 186 186 186 192 217 206 215 224 233 243 284 297 300 206 204 121 132 172 151 131 111
168 184 210 196 190 189 185 188 191 190 186 181 183 183 192 206 214 226 228 247 272 271 11 126 164 242 180 105 154 180 161 193
202 214 209 194 194 191 188 191 192 187 182 183 182 193 201 208 220 231 238 241 223 209 110 148 145 191 207 126 122 101 113 122
Wind_Speed_850mb
88 85 78 69 64 59 52 46 43 42 39 36 35 34 31 29 27 23 19 19 17 16 12 12 11 12 13 16 19 21 20 19
86 83 79 71 66 62 55 49 44 41 39 35 33 32 29 28 26 23 20 18 16 12 9 11 11 14 16 15 19 23 23 25
86 83 76 69 67 65 58 51 46 41 38 36 34 32 29 27 25 23 21 17 12 8 9 10 13 14 14 13 18 20 22 25
85 79 73 69 66 66 60 53 47 42 38 38 37 32 30 27 24 21 18 13 9 8 9 12 13 13 15 17 23 24 22 25
81 77 73 70 70 68 65 57 49 43 39 39 37 34 30 27 24 18 14 10 8 9 12 16 17 17 19 20 18 22 19 27
79 77 74 72 71 70 66 60 52 45 41 41 38 35 31 26 23 19 15 13 11 9 14 17 16 16 21 18 20 23 24 18
86 81 77 73 73 71 69 65 58 51 48 45 40 35 33 28 25 25 19 18 12 12 15 18 15 10 9 15 20 19 18 18
87 81 75 71 73 73 72 66 60 52 49 45 40 37 34 29 30 23 19 15 14 11 12 8 6 12 14 9 15 19 22 26
85 79 76 73 74 73 67 65 59 55 52 48 43 40 36 31 29 25 13 10 5 6 6 1 6 7 11 16 20 27 19 17
83 86 79 75 73 69 67 62 59 55 51 46 45 39 35 29 22 15 8 8 7 7 6 5 11 15 20 18 19 14 10 11
78 88 82 76 69 66 64 61 58 55 49 48 46 38 31 25 17 14 15 11 11 10 9 20 21 13 12 15 16 13 14 12
74 86 84 76 67 63 61 59 55 50 49 46 43 33 25 28 24 22 19 17 14 12 18 14 9 9 17 17 10 13 14 10
75 82 80 73 65 56 61 57 53 50 47 41 28 25 31 27 24 24 21 17 14 18 15 11 7 9 17 17 13 5 8 9
76 82 77 70 65 54 57 56 54 43 36 31 24 26 27 20 27 26 24 15 15 19 18 10 10 15 11 13 7 4 11 19
82 79 75 69 64 55 61 52 45 38 34 35 31 31 25 26 25 31 23 20 21 20 16 15 17 14 6 12 15 25 33 27
81 82 81 77 72 65 61 57 58 55 44 43 39 39 30 22 23 33 27 23 19 18 16 17 18 10 2 16 32 37 42 29
85 82 83 81 80 75 65 65 67 55 44 47 44 39 30 19 24 21 23 19 14 16 15 6 6 6 4 10 34 29 19 22
84 62 68 90 89 81 74 73 62 54 52 52 51 42 32 26 23 22 17 15 14 7 1 6 6 3 2 3 6 18 13 11
69 35 67 90 97 90 83 77 70 61 60 54 48 37 30 24 23 21 17 12 8 3 2 6 8 7 4 6 13 19 18 16
Wind_Direction_850mb
175 175 176 175 172 169 167 163 157 152 148 149 155 158 157 157 153 148 145 133 127 114 103 80 58 41 28 26 34 36 22 7
174 174 174 174 174 171 169 167 162 157 152 153 156 158 158 156 151 151 144 135 126 112 83 56 37 31 34 40 53 38 34 34
173 173 172 173 174 172 170 169 167 163 158 157 156 157 158 155 153 152 140 136 124 102 65 44 43 42 40 45 43 34 22 19
174 173 170 171 174 172 171 172 172 168 164 162 160 158 156 154 152 149 140 134 118 85 67 59 55 47 46 51 34 29 19 17
173 175 173 172 174 173 172 174 175 173 171 168 163 159 157 157 151 148 137 120 105 96 79 66 65 54 43 26 27 14 8 356
176 178 176 176 175 175 174 175 178 178 175 171 168 162 160 157 149 140 133 119 111 98 86 77 56 40 32 40 10 4 5 22
178 179 180 178 178 178 177 179 180 181 179 175 170 164 162 159 143 132 127 107 109 90 84 73 26 43 33 10 13 4 3 336
180 181 182 182 182 183 183 182 182 184 179 174 170 165 165 156 151 148 131 121 99 95 72 65 30 19 29 11 6 346 334 329
182 184 183 185 185 188 188 186 184 183 179 176 169 171 172 163 154 156 147 169 100 179 143 175 340 327 327 312 323 321 336 322
181 187 186 186 188 188 192 189 186 182 181 176 175 174 174 171 161 166 170 173 151 157 166 238 276 280 302 307 325 350 343 336
186 188 188 189 189 191 192 191 187 182 179 180 179 177 176 170 178 188 189 206 213 193 255 269 284 289 332 340 354 15 0 350
190 187 188 186 187 191 191 190 185 179 179 180 184 181 182 186 199 199 211 216 216 232 262 278 267 312 341 11 36 42 31 12
186 186 186 183 182 182 185 186 181 180 176 167 168 178 183 193 206 207 211 198 225 251 266 260 261 313 344 14 29 49 18 45
188 183 184 180 178 175 178 177 175 174 175 173 170 181 189 204 218 225 200 211 231 251 273 269 301 301 343 16 355 5 108 105
185 183 184 179 180 180 179 175 177 182 181 183 191 203 200 210 215 192 183 206 233 261 266 291 290 284 313 43 91 111 114 116
181 185 190 182 182 181 181 185 178 183 185 195 192 187 188 191 196 199 211 224 244 263 283 284 280 243 235 112 133 122 110 111
178 184 194 188 185 185 184 182 182 185 188 186 186 186 192 217 206 215 224 233 243 284 297 300 206 204 121 132 172 151 131 111
168 184 210 196 190 189 185 188 191 190 186 181 183 183 192 206 214 226 228 247 272 271 11 126 164 242 180 105 154 180 161 193
202 214 209 194 194 191 188 191 192 187 182 183 182 193 201 208 220 231 238 241 223 209 110 148 145 191 207 126 122 101 113 122